This is the latest recevied weather packets stored in our database for station/object N8WJW. If no packets are shown the sender has not sent any weather packets the latest 10 day(s).
| Time | Temp. | Humidity | Pressure | Rain* | Wind** | Luminosity | Snow |
|---|---|---|---|---|---|---|---|
| 1778179887 | 13.89° C | 46% | 1013.1 hPa | 0 mm | - | 795 W/m² | - |
| 1778179585 | 13.89° C | 51% | 1013 hPa | 0 mm | - | 798 W/m² | - |
| 1778179283 | 13.89° C | 49% | 1013.1 hPa | 0 mm | - | 808 W/m² | - |
| 1778178979 | 13.89° C | 52% | 1013 hPa | 0 mm | - | 810 W/m² | - |
| 1778178676 | 13.33° C | 44% | 1013.2 hPa | 0 mm | - | 820 W/m² | - |
| 1778178372 | 13.89° C | 50% | 1013.2 hPa | 0 mm | - | 835 W/m² | - |
| 1778178068 | 13.33° C | 48% | 1013.2 hPa | 0 mm | - | 829 W/m² | - |
| 1778177765 | 13.89° C | 56% | 1013.2 hPa | 0 mm | - | 826 W/m² | - |
| 1778177461 | 13.89° C | 46% | 1013 hPa | 0 mm | - | 664 W/m² | - |
| 1778177158 | 12.78° C | 49% | 1013.1 hPa | 0 mm | - | 634 W/m² | - |
| 1778176855 | 12.78° C | 54% | 1013 hPa | 0 mm | - | 655 W/m² | - |
| 1778176551 | 12.22° C | 49% | 1013 hPa | 0 mm | - | 814 W/m² | - |
| 1778176249 | 13.33° C | 49% | 1013 hPa | 0 mm | - | 605 W/m² | - |
| 1778175945 | 13.33° C | 48% | 1013.2 hPa | 0 mm | - | 747 W/m² | - |
| 1778175643 | 13.89° C | 52% | 1013.3 hPa | 0 mm | - | 609 W/m² | - |
| 1778175340 | 13.33° C | 54% | 1013.1 hPa | 0 mm | - | 130 W/m² | - |
| 1778175037 | 13.33° C | 52% | 1013.3 hPa | 0 mm | - | 114 W/m² | - |
| 1778174733 | 13.33° C | 50% | 1013 hPa | 0 mm | - | 111 W/m² | - |
| 1778174430 | 13.33° C | 53% | 1013.2 hPa | 0 mm | - | 98 W/m² | - |
| 1778174125 | 13.33° C | 48% | 1013.3 hPa | 0 mm | - | 111 W/m² | - |
| 1778173823 | 13.33° C | 52% | 1013.3 hPa | 0 mm | - | 584 W/m² | - |
| 1778173519 | 13.33° C | 52% | 1013.3 hPa | 0 mm | - | 863 W/m² | - |
| 1778173217 | 12.78° C | 50% | 1013.1 hPa | 0 mm | - | 466 W/m² | - |
| 1778172912 | 13.33° C | 50% | 1013.2 hPa | 0 mm | - | 840 W/m² | - |
| 1778172609 | 13.89° C | 48% | 1013.2 hPa | 0 mm | - | 846 W/m² | - |
* Rain latest hour (hover to see other rain measurements)
** Current wind speed in m/s (hover to see current wind gust speed)